User: anonymous   Login
Location: Caltech
(34.1382°N, 118.1253°W)
Time: 02:39:14
(UTC-07:00)
Language:

Hamsat - Orbit

View from above orbital plane
View from above orbital plane
View from above satellite
View from above satellite

Ground track
Ground track

The orbit data is extracted from the following two-line orbital elements,

1 28650U 05017B   16208.52996935  .00000362  00000-0  44612-4 0  9991
2 28650  97.6106 188.8068 0024966 126.6845 233.6672 14.88338414607725
Epoch (UTC): 26 July 2016 12:43:09
Eccentricity: 0.0024966
inclination: 97.6106°
perigee height: 586 km
apogee height: 620 km
right ascension of ascending node: 188.8068°
argument of perigee: 126.6845°
revolutions per day: 14.88338414
mean anomaly at epoch: 233.6672°
orbit number at epoch: 60772

The dashed part of the orbit path shows where the satellite is in the earth's shadow,  

DLR